Wind_Speed
14 14 15 15 15 16 17 17 16 17 17 17 17 17 18 18 17 20 23 17 11 10 17 9 6 3 4 7 8 7 4 4 7 7 5 9 7 10 9 9 18 21 18 25 30
14 15 15 16 16 17 17 17 17 17 17 18 17 17 18 19 19 17 6 6 8 10 10 12 7 4 4 4 6 5 4 10 8 7 8 16 14 17 6 15 15 13 23 30 34
15 16 16 17 17 18 18 18 18 18 19 18 17 16 16 16 17 1 3 4 4 11 12 9 4 3 3 2 4 5 6 8 7 14 25 23 13 14 6 13 20 33 35 37 38
16 16 17 17 18 19 19 19 19 19 19 18 17 15 14 12 3 1 2 3 2 9 13 10 4 6 3 3 4 1 9 5 10 10 20 17 18 8 19 6 25 36 40 40 41
17 17 17 18 19 19 20 19 19 21 20 18 16 13 12 8 13 6 6 4 4 9 12 10 9 5 2 3 2 5 4 6 9 20 31 27 16 6 11 16 30 36 38 38 41
18 18 19 19 20 20 20 20 20 20 20 18 14 11 9 5 5 2 2 4 5 7 11 13 7 3 2 2 2 3 7 3 10 23 17 17 8 13 12 23 29 35 37 37 37
19 19 20 20 20 21 20 20 20 19 17 16 12 11 14 20 7 4 3 3 7 6 8 13 10 4 5 6 3 4 5 5 1 13 7 23 2 6 25 29 33 33 35 36 33
20 21 21 21 21 21 20 19 17 16 13 11 9 10 10 7 8 10 8 6 7 8 5 3 7 8 5 5 6 4 4 3 3 7 11 8 15 7 30 33 29 33 33 33 33
22 22 22 22 21 20 19 15 11 9 8 8 7 6 11 5 8 14 11 6 6 6 9 6 6 5 1 3 5 6 2 2 1 7 6 3 4 11 32 26 25 28 26 30 31
24 24 24 22 21 18 12 7 9 6 3 5 7 6 8 3 8 6 12 11 9 8 8 6 4 2 4 5 3 2 3 2 4 8 9 13 7 11 29 28 27 25 26 29 33
25 24 24 23 20 12 11 2 7 3 13 12 15 19 24 17 21 4 7 15 15 6 3 2 4 4 7 6 5 1 2 3 5 8 6 16 10 20 31 22 18 16 17 16 20
27 27 24 22 15 4 10 7 9 10 16 24 28 30 32 26 12 12 6 9 8 7 2 5 5 10 5 3 4 3 3 8 9 4 9 4 7 19 18 17 27 30 24 29 32
26 26 24 21 9 5 4 8 10 16 5 13 7 11 16 16 15 21 9 9 4 5 4 6 8 3 4 5 4 4 4 6 8 5 5 9 4 9 4 13 24 34 38 43 37
25 26 23 19 6 11 2 8 11 13 5 7 7 6 4 3 5 22 18 11 1 9 6 5 7 7 4 6 6 5 7 10 8 3 5 3 3 5 10 11 14 26 31 43 32
25 26 22 18 12 6 6 10 8 3 4 11 6 16 2 4 12 4 18 14 8 7 7 9 2 1 4 7 6 11 6 10 7 5 3 2 5 3 10 7 16 26 27 30 34
22 23 19 13 8 4 10 7 2 5 2 8 6 10 4 3 7 7 9 13 14 4 2 8 2 4 7 5 7 7 6 6 6 3 1 7 6 4 10 20 18 19 26 30 31
21 20 13 9 8 8 8 3 5 4 5 7 6 9 5 8 8 1 2 1 5 2 5 3 7 3 6 6 1 3 5 3 2 2 5 2 4 7 18 5 17 25 30 32 33
20 15 2 9 13 11 5 5 4 1 2 4 7 9 3 10 7 8 7 2 1 1 2 4 9 7 4 8 7 6 8 5 7 4 6 1 5 5 4 8 18 26 29 31 34
20 8 2 5 11 12 5 5 5 2 3 6 8 4 5 7 3 8 5 1 3 4 5 4 8 10 4 7 6 4 4 4 5 2 3 3 4 4 4 6 11 21 30 36 38
20 6 6 4 9 9 5 2 2 3 7 3 4 3 4 6 8 6 4 1 6 4 4 3 6 8 12 4 5 7 5 2 3 4 4 4 3 5 5 9 9 12 24 33 38
13 2 2 1 3 4 3 4 3 8 11 4 3 4 3 3 3 4 3 3 12 6 3 4 2 8 4 5 8 2 2 1 4 5 6 4 6 8 14 14 16 18 30 40 42
10 2 4 1 3 3 1 4 7 6 8 3 2 3 2 4 3 3 4 4 21 14 2 2 2 5 8 8 5 4 6 7 5 5 2 4 6 5 11 14 22 24 32 37 40
15 6 9 3 3 2 6 5 4 6 6 4 4 4 2 2 5 4 5 9 19 6 5 4 2 4 13 8 8 5 5 4 4 3 6 6 6 3 5 9 25 25 28 33 36
8 4 6 10 7 3 4 4 6 13 3 5 2 2 2 1 3 4 4 4 17 8 9 1 1 5 5 5 6 12 23 4 6 4 4 6 4 5 7 10 12 23 29 36 39
6 2 3 3 4 3 2 4 4 6 6 13 3 3 2 3 3 1 3 6 7 1 5 3 4 5 8 9 12 19 24 21 7 6 6 6 10 9 9 10 18 28 29 29 33
4 4 4 1 4 4 4 4 5 5 3 5 3 9 4 3 2 6 4 4 6 3 3 1 4 4 8 14 13 22 32 25 10 4 4 6 5 5 5 6 18 27 31 33 36
3 2 3 2 2 1 1 3 4 7 4 5 4 5 4 1 19 28 25 22 14 4 2 3 4 3 5 4 5 16 7 13 9 7 9 5 10 8 6 8 21 28 34 38 38
Wind_Direction
343 339 335 333 330 328 327 326 325 321 317 314 312 314 314 311 306 296 286 296 279 226 237 232 241 227 206 190 183 160 80 153 188 154 225 197 175 177 189 162 167 182 172 170 178
343 337 334 330 326 323 321 320 320 319 317 314 311 312 314 315 314 302 339 326 224 234 224 219 211 193 159 198 192 130 134 201 193 154 187 183 182 173 187 194 188 137 149 170 171
343 337 332 328 324 319 318 317 317 316 315 315 312 309 312 320 320 119 11 357 270 212 203 214 219 144 142 183 203 156 177 187 184 192 180 172 203 176 188 184 192 153 156 165 171
342 338 334 329 323 319 317 316 314 311 312 313 311 306 308 314 306 113 49 351 284 195 203 218 209 157 126 205 207 167 240 173 172 196 158 172 180 185 182 224 190 171 166 166 171
339 336 332 328 323 319 317 316 313 309 310 310 308 300 302 289 265 260 281 300 265 203 207 210 183 163 173 207 205 200 245 184 170 174 176 167 166 170 199 169 165 160 166 170 177
338 335 331 327 323 320 317 314 310 306 308 307 303 290 283 271 303 202 241 262 254 237 212 200 200 199 272 252 178 247 267 283 186 194 158 140 134 154 183 160 160 164 170 174 175
342 338 333 327 323 320 318 315 306 305 305 302 295 284 272 265 276 201 212 275 265 260 219 202 178 313 344 311 341 267 318 58 27 134 146 124 86 217 166 165 162 172 173 178 175
345 343 338 333 325 321 323 315 307 305 301 297 291 281 263 271 237 200 201 226 251 231 222 209 230 285 256 301 336 6 49 52 237 144 159 139 206 196 173 166 164 167 172 180 180
345 344 341 338 329 326 331 325 318 311 299 295 285 278 268 287 281 218 222 223 238 230 227 239 295 247 256 64 11 8 252 133 159 226 154 155 216 194 177 173 168 170 169 176 177
346 344 342 341 332 334 347 359 350 336 341 302 263 292 257 166 16 303 211 232 236 266 255 233 182 68 39 72 235 248 6 344 121 212 179 197 246 173 172 177 181 168 164 171 174
347 344 343 343 336 347 20 22 354 329 306 258 261 261 276 291 294 255 234 211 226 257 218 352 76 221 241 205 193 161 217 281 263 171 143 214 203 176 177 186 148 135 141 144 155
346 342 345 346 340 4 24 57 27 321 294 286 277 262 261 262 297 243 240 199 163 203 104 11 250 235 216 191 227 215 281 278 283 273 181 198 224 177 169 167 154 148 158 187 176
347 340 343 346 339 334 339 9 340 343 283 304 293 273 266 236 226 247 225 221 149 165 165 181 239 137 160 262 237 237 208 259 228 60 54 105 37 144 151 152 173 182 191 192 196
346 340 342 346 344 330 201 322 316 330 36 289 0 3 319 209 235 233 232 221 212 197 174 224 264 235 215 245 151 283 221 252 266 132 227 176 222 214 178 178 181 196 187 194 196
344 338 341 340 333 322 308 319 312 301 32 333 7 11 165 204 311 263 209 197 197 194 122 241 232 152 237 224 157 237 266 233 229 198 130 295 92 258 159 215 208 205 198 196 198
341 335 339 342 341 312 307 317 358 43 346 337 37 330 7 290 258 347 191 211 223 194 263 227 273 166 234 266 175 256 296 41 40 91 87 237 146 233 186 209 211 203 196 199 191
341 338 343 25 8 346 340 347 40 101 335 358 343 335 328 342 344 134 179 170 185 141 266 289 260 242 225 285 299 128 75 303 333 5 213 233 119 228 215 238 203 194 188 194 186
343 343 79 50 32 15 354 50 77 335 329 328 331 313 41 6 341 11 354 306 179 307 230 215 300 186 191 192 215 182 168 169 221 191 237 66 198 257 120 169 187 187 186 182 196
342 354 86 26 13 359 354 61 186 224 323 322 321 10 337 352 324 359 347 3 350 165 205 204 252 260 190 217 150 281 237 216 113 16 99 227 297 351 92 102 137 157 174 186 199
341 8 84 31 358 346 63 218 241 262 314 316 13 337 338 350 1 7 327 341 347 55 169 297 294 250 273 146 242 175 183 289 350 155 221 259 245 223 196 190 155 171 183 187 195
343 77 111 63 343 13 102 247 292 348 13 357 331 292 12 22 278 300 280 58 350 307 357 4 127 306 180 198 228 227 243 107 139 152 178 214 252 211 195 187 174 187 190 190 194
357 40 23 217 42 27 27 314 312 331 351 340 53 49 24 310 302 303 39 350 347 329 15 136 103 300 252 260 237 186 238 170 157 248 169 164 265 213 179 180 180 192 196 195 199
341 316 15 3 95 356 315 313 333 345 336 342 42 39 12 310 323 34 346 320 346 355 15 336 0 347 337 1 11 332 228 157 125 85 195 149 254 242 166 167 188 186 194 194 196
347 355 16 62 55 91 0 339 344 336 73 38 53 69 35 345 290 305 334 322 327 355 16 180 125 131 210 255 308 301 306 247 146 132 187 207 221 202 214 193 173 191 192 193 196
7 40 28 335 356 359 273 352 3 356 3 23 8 55 318 293 318 210 262 301 299 304 355 84 218 208 228 288 314 309 309 282 206 183 173 218 183 220 206 188 180 183 186 183 187
14 4 350 285 304 324 1 18 30 329 303 348 34 307 253 257 89 296 337 231 232 306 3 243 261 235 255 281 284 308 307 283 224 163 119 143 237 194 180 156 166 183 181 186 193
77 352 314 335 358 100 82 316 44 349 283 92 347 345 305 5 318 291 269 254 250 250 221 256 200 171 267 271 333 309 293 305 223 199 145 164 218 157 167 186 179 182 188 194 195
Height
1527 1525 1522 1520 1518 1516 1513 1510 1508 1504 1501 1499 1497 1494 1492 1489 1488 1485 1481 1481 1483 1484 1486 1489 1491 1491 1491 1493 1494 1496 1512 1525 1515 1518 1511 1508 1513 1515 1518 1520 1520 1519 1518 1522 1525
1526 1524 1521 1519 1516 1514 1512 1509 1506 1503 1499 1497 1494 1492 1490 1487 1484 1481 1480 1477 1478 1481 1483 1487 1488 1489 1490 1490 1492 1495 1510 1510 1498 1500 1502 1503 1509 1512 1517 1519 1519 1519 1519 1521 1524
1525 1523 1520 1518 1515 1513 1509 1507 1503 1500 1497 1494 1492 1490 1488 1486 1483 1478 1478 1478 1477 1478 1482 1485 1486 1488 1489 1489 1489 1492 1500 1494 1496 1493 1493 1501 1509 1511 1512 1516 1513 1513 1516 1520 1522
1524 1521 1519 1516 1513 1510 1507 1504 1501 1498 1495 1492 1490 1488 1487 1487 1488 1478 1478 1477 1477 1478 1481 1483 1485 1486 1488 1489 1487 1491 1486 1488 1493 1490 1495 1500 1504 1507 1509 1511 1513 1511 1513 1517 1521
1523 1521 1518 1515 1511 1508 1504 1501 1498 1495 1492 1490 1487 1486 1485 1485 1478 1478 1477 1477 1477 1478 1479 1482 1484 1485 1487 1487 1486 1487 1483 1485 1486 1486 1488 1495 1501 1505 1510 1508 1510 1515 1517 1519 1522
1522 1519 1516 1512 1508 1505 1501 1498 1495 1492 1489 1487 1485 1484 1484 1484 1475 1476 1477 1477 1477 1477 1478 1480 1483 1484 1485 1485 1485 1482 1480 1481 1482 1483 1488 1493 1502 1507 1509 1508 1511 1515 1518 1521 1523
1520 1517 1513 1509 1505 1502 1498 1495 1491 1489 1486 1485 1483 1482 1481 1475 1474 1475 1476 1477 1477 1477 1477 1480 1483 1485 1485 1483 1481 1479 1481 1481 1484 1485 1491 1494 1507 1504 1505 1508 1509 1513 1517 1520 1525
1518 1515 1510 1506 1502 1498 1495 1491 1488 1486 1484 1483 1482 1481 1476 1473 1472 1473 1475 1476 1476 1477 1478 1481 1483 1484 1484 1482 1481 1482 1485 1495 1490 1487 1492 1492 1504 1500 1503 1504 1508 1512 1515 1516 1520
1516 1513 1508 1504 1499 1495 1491 1488 1485 1484 1482 1481 1481 1481 1473 1471 1470 1473 1474 1474 1476 1477 1478 1481 1482 1482 1482 1486 1495 1493 1499 1494 1496 1488 1488 1494 1502 1497 1502 1506 1509 1510 1514 1517 1521
1514 1510 1506 1502 1497 1492 1489 1486 1484 1483 1482 1481 1480 1483 1471 1471 1470 1471 1473 1474 1476 1477 1479 1479 1479 1484 1488 1495 1514 1499 1496 1494 1496 1492 1491 1494 1496 1494 1501 1503 1505 1509 1514 1518 1517
1512 1508 1504 1500 1495 1492 1490 1487 1488 1485 1482 1478 1475 1472 1467 1469 1468 1469 1470 1472 1475 1477 1480 1478 1486 1494 1489 1488 1487 1488 1493 1496 1486 1487 1491 1491 1490 1490 1495 1503 1511 1519 1521 1526 1526
1510 1505 1502 1498 1493 1492 1491 1490 1492 1493 1477 1469 1465 1465 1465 1469 1471 1465 1469 1472 1473 1481 1479 1485 1490 1479 1480 1484 1487 1488 1491 1493 1481 1473 1482 1482 1490 1487 1497 1506 1507 1509 1519 1520 1518
1509 1504 1500 1497 1493 1492 1491 1491 1490 1488 1483 1463 1461 1461 1461 1463 1466 1462 1467 1468 1470 1477 1480 1489 1479 1475 1480 1484 1488 1488 1490 1488 1488 1477 1480 1484 1498 1498 1500 1502 1506 1501 1495 1504 1506
1508 1503 1499 1496 1495 1491 1490 1490 1489 1487 1494 1473 1463 1464 1462 1464 1462 1460 1463 1468 1470 1476 1478 1481 1472 1474 1479 1482 1483 1494 1475 1477 1480 1486 1500 1476 1512 1503 1497 1498 1500 1500 1497 1500 1505
1506 1502 1498 1494 1492 1491 1491 1489 1488 1488 1511 1471 1468 1466 1462 1464 1463 1457 1459 1463 1469 1470 1475 1480 1473 1475 1478 1477 1476 1481 1469 1475 1475 1483 1483 1483 1499 1496 1496 1503 1494 1491 1497 1500 1501
1504 1500 1496 1493 1491 1490 1489 1487 1487 1502 1504 1479 1472 1470 1465 1461 1458 1458 1459 1461 1463 1468 1468 1470 1465 1469 1468 1463 1468 1465 1470 1478 1485 1492 1506 1484 1490 1503 1495 1480 1479 1487 1492 1498 1501
1502 1498 1494 1493 1492 1489 1487 1487 1503 1511 1486 1489 1482 1474 1471 1469 1461 1458 1461 1465 1473 1481 1483 1470 1468 1463 1463 1468 1462 1467 1483 1506 1506 1509 1511 1483 1488 1478 1469 1469 1466 1471 1483 1491 1496
1500 1496 1495 1494 1492 1490 1488 1491 1504 1497 1493 1484 1483 1477 1476 1473 1468 1466 1466 1470 1466 1471 1480 1486 1487 1463 1457 1463 1466 1471 1480 1505 1508 1517 1498 1481 1490 1473 1465 1464 1464 1472 1480 1486 1493
1498 1495 1495 1495 1494 1492 1490 1510 1506 1497 1490 1489 1485 1485 1484 1478 1476 1472 1472 1473 1468 1469 1481 1483 1477 1451 1453 1453 1457 1465 1476 1466 1485 1488 1498 1490 1474 1465 1466 1468 1468 1470 1477 1480 1486
1497 1495 1495 1496 1495 1493 1496 1505 1499 1492 1489 1487 1494 1487 1492 1488 1486 1481 1475 1467 1468 1465 1463 1469 1479 1452 1449 1451 1452 1456 1455 1474 1489 1500 1500 1493 1484 1481 1472 1470 1469 1472 1473 1477 1482
1497 1495 1496 1496 1496 1495 1506 1505 1496 1492 1491 1492 1491 1491 1491 1494 1490 1482 1475 1471 1473 1466 1462 1466 1474 1459 1450 1456 1460 1459 1464 1466 1475 1485 1494 1501 1490 1454 1452 1453 1458 1464 1466 1468 1474
1499 1498 1498 1497 1499 1502 1504 1501 1496 1493 1492 1491 1490 1491 1495 1493 1490 1484 1485 1483 1477 1473 1471 1468 1475 1483 1464 1448 1441 1444 1452 1459 1480 1477 1480 1485 1477 1438 1442 1447 1450 1454 1460 1464 1469
1503 1500 1498 1496 1507 1509 1504 1501 1498 1496 1495 1492 1494 1494 1495 1495 1496 1489 1488 1483 1479 1474 1476 1471 1480 1490 1471 1456 1451 1452 1443 1449 1459 1467 1476 1480 1473 1437 1439 1445 1446 1449 1455 1462 1468
1508 1507 1501 1501 1507 1509 1509 1506 1503 1498 1499 1496 1497 1497 1498 1497 1495 1494 1491 1483 1481 1478 1474 1471 1478 1484 1499 1489 1484 1478 1462 1447 1450 1472 1467 1464 1450 1440 1439 1441 1445 1447 1452 1457 1463
1512 1513 1514 1514 1510 1512 1511 1509 1507 1505 1500 1499 1499 1500 1501 1501 1499 1496 1492 1488 1479 1477 1474 1475 1479 1478 1473 1472 1476 1471 1466 1453 1444 1441 1453 1442 1446 1436 1433 1434 1437 1443 1451 1458 1461
1515 1515 1513 1513 1513 1511 1511 1512 1509 1508 1504 1503 1505 1500 1497 1498 1498 1501 1497 1492 1486 1476 1477 1476 1479 1472 1468 1465 1468 1470 1457 1447 1433 1436 1433 1437 1440 1426 1430 1432 1437 1438 1444 1450 1454
1514 1515 1515 1513 1512 1512 1515 1513 1511 1510 1503 1502 1503 1501 1497 1496 1496 1492 1488 1485 1482 1479 1480 1480 1476 1475 1476 1462 1463 1470 1459 1443 1426 1423 1420 1442 1429 1425 1428 1429 1431 1435 1438 1442 1448